Weather History for Houghton Lake, MI

Change the Weather History Date:

Thursday, November 28, 2013

  Actual Average Record
Temperature  
Mean Temperature 14 °F 30 °F  
Max Temperature 21 °F 37 °F 61 °F (1990)
Min Temperature 7 °F 24 °F 0 °F (1955)
Degree Days  
Heating Degree Days 51 35  
Month to date heating degree days 864 834  
Since 1 July heating degree days 1781 1812  
Moisture  
Dew Point 15 °F    
Average Humidity 83    
Maximum Humidity 92    
Minimum Humidity 73    
Precipitation  
Precipitation 0.09 in 0.07 in 0.98 in (1964)
Month to date precipitation 3.16 2.17  
Year to date precipitation 28.50 26.95  
Snow  
Snow 1.00 in 0.40 in 4.10 in (1968)
Month to date snowfall 3.8 7.6  
Since 1 July snowfall 3.8 8.2  
Snow Depth 2.00 in    
Sea Level Pressure  
Sea Level Pressure 30.27 in    
Wind  
Wind Speed 5 mph (ESE)    
Max Wind Speed 12 mph    
Max Gust Speed 15 mph    
Visibility 4 miles    
Events Snow    
T = Trace of Precipitation, MM = Missing Value Source: NWS Daily Summary

Daily Weather History Graph

Daily Weather History Graph

Search for Another Location

Airport:

Trip Planner

Search our weather history database for the weather conditions in past years. The results will help you decide how hot, cold, wet, or windy it might be!

Date:

Astronomy

Nov. 28, 2013 Rise Set
Actual Time 7:51 AM EST 5:01 PM EST
Civil Twilight 7:18 AM EST 5:34 PM EST
Nautical Twilight 6:42 AM EST 6:10 PM EST
Astronomical Twilight 6:08 AM EST 6:45 PM EST
Moon 2:43 AM EST (11/28) 2:19 PM EST (11/28)
Length of Visible Light 10h 15m
Length of Day
9h 10m
Waning Crescent, 22% of the Moon is Illuminated
Nov 28
Waning Crescent
Dec 2
New
Dec 9
First Quarter
Dec 17
Full
Dec 25
Last Quarter

Hourly Weather History & Observations

Time (EST) Temp. Windchill Dew Point Humidity Pressure Visibility Wind Dir Wind Speed Gust Speed Precip Events Conditions
12:53 AM 12.0 °F 5.9 °F 8.1 °F 84% 30.22 in 10.0 mi WNW 3.5 mph - N/A   Clear
1:53 AM 8.1 °F - 6.1 °F 92% 30.22 in 10.0 mi Calm Calm - N/A   Clear
2:53 AM 10.0 °F - 7.0 °F 87% 30.24 in 10.0 mi Calm Calm - N/A   Clear
3:53 AM 10.9 °F - 8.1 °F 88% 30.23 in 10.0 mi Calm Calm - N/A   Mostly Cloudy
4:53 AM 12.9 °F 6.9 °F 9.0 °F 84% 30.24 in 10.0 mi East 3.5 mph - N/A   Overcast
5:53 AM 14.0 °F 8.2 °F 10.0 °F 84% 30.26 in 10.0 mi East 3.5 mph - N/A   Overcast
6:53 AM 15.1 °F - 12.0 °F 88% 30.28 in 10.0 mi Calm Calm - N/A   Overcast
7:53 AM 15.1 °F 9.4 °F 12.0 °F 88% 30.29 in 7.0 mi East 3.5 mph - 0.00 in Snow Light Snow
8:23 AM 16.0 °F 8.8 °F 12.9 °F 88% 30.22 in 2.5 mi SE 4.6 mph - 0.00 in Snow Light Snow
8:53 AM 17.1 °F 10.0 °F 14.0 °F 88% 30.29 in 2.5 mi SE 4.6 mph - 0.01 in Snow Light Snow
9:22 AM 17.1 °F 8.7 °F 14.0 °F 88% 30.22 in 1.8 mi SE 5.8 mph - 0.00 in Snow Light Snow
9:32 AM 18.0 °F 9.8 °F 14.0 °F 84% 30.23 in 1.5 mi SE 5.8 mph - 0.00 in Snow Light Snow
9:53 AM 18.0 °F 8.7 °F 14.0 °F 84% 30.30 in 1.5 mi SE 6.9 mph - 0.01 in Snow Light Snow
10:46 AM 19.0 °F 10.0 °F 15.1 °F 85% 30.23 in 1.5 mi ESE 6.9 mph - 0.00 in Snow Light Snow
10:53 AM 18.0 °F 7.7 °F 15.1 °F 88% 30.30 in 1.5 mi SE 8.1 mph - 0.01 in Snow Light Snow
11:04 AM 18.0 °F 7.7 °F 15.1 °F 88% 30.23 in 1.8 mi ESE 8.1 mph - 0.00 in Snow Light Snow
11:51 AM 19.4 °F 8.6 °F 15.8 °F 86% 30.21 in 1.5 mi SE 9.2 mph - 0.01 in Snow Light Snow
11:53 AM 19.0 °F 9.0 °F 15.1 °F 85% 30.28 in 1.5 mi SE 8.1 mph - 0.01 in Snow Light Snow
12:19 PM 19.9 °F 11.1 °F 16.0 °F 85% 30.20 in 1.8 mi SE 6.9 mph - 0.00 in Snow Light Snow
12:53 PM 19.9 °F 11.1 °F 16.0 °F 85% 30.27 in 1.5 mi SE 6.9 mph - 0.00 in Snow Light Snow
1:44 PM 19.9 °F 10.1 °F 16.0 °F 85% 30.19 in 0.8 mi SE 8.1 mph - 0.01 in Snow Light Snow
1:53 PM 19.9 °F 11.1 °F 16.0 °F 85% 30.26 in 0.8 mi SE 6.9 mph - 0.01 in Snow Light Snow
2:28 PM 19.9 °F 9.3 °F 16.0 °F 85% 30.19 in 1.2 mi ESE 9.2 mph - 0.01 in Snow Light Snow
2:40 PM 19.9 °F 12.1 °F 16.0 °F 85% 30.19 in 1.8 mi ESE 5.8 mph - 0.01 in Snow Light Snow
2:53 PM 19.9 °F 9.3 °F 17.1 °F 89% 30.27 in 1.5 mi ESE 9.2 mph - 0.02 in Snow Light Snow
3:07 PM 19.9 °F 10.1 °F 16.0 °F 85% 30.20 in 1.0 mi ESE 8.1 mph - 0.00 in Snow Light Snow
3:27 PM 19.9 °F 11.1 °F 16.0 °F 85% 30.20 in 1.5 mi ESE 6.9 mph - 0.00 in Snow Light Snow
3:36 PM 21.0 °F 13.4 °F 17.1 °F 85% 30.21 in 2.0 mi ESE 5.8 mph - 0.00 in Snow Light Snow
3:53 PM 19.9 °F 10.1 °F 17.1 °F 89% 30.29 in 2.0 mi East 8.1 mph - 0.00 in Snow Light Snow
4:16 PM 19.9 °F 12.1 °F 17.1 °F 89% 30.23 in 3.0 mi ESE 5.8 mph - 0.00 in Snow Light Snow
4:24 PM 19.9 °F 10.1 °F 17.1 °F 89% 30.23 in 2.0 mi ESE 8.1 mph - 0.00 in Snow Light Snow
4:33 PM 19.9 °F 11.1 °F 17.1 °F 89% 30.23 in 1.8 mi ESE 6.9 mph - 0.00 in Snow Light Snow
4:40 PM 19.9 °F 10.1 °F 17.1 °F 89% 30.24 in 1.5 mi ESE 8.1 mph - 0.01 in Snow Light Snow
4:51 PM 19.4 °F 11.5 °F 17.6 °F 93% 30.24 in 1.8 mi ESE 5.8 mph - 0.01 in Snow Light Snow
4:53 PM 19.9 °F 12.1 °F 17.1 °F 89% 30.31 in 1.8 mi ESE 5.8 mph - 0.01 in Snow Light Snow
5:05 PM 19.9 °F 12.1 °F 17.1 °F 89% 30.25 in 1.5 mi ESE 5.8 mph - 0.00 in Snow Light Snow
5:15 PM 19.9 °F 11.1 °F 17.1 °F 89% 30.25 in 2.0 mi ESE 6.9 mph - 0.00 in Snow Light Snow
5:28 PM 19.9 °F 12.1 °F 17.1 °F 89% 30.26 in 4.0 mi ESE 5.8 mph - 0.00 in Snow Light Snow
5:53 PM 19.0 °F 11.1 °F 16.0 °F 88% 30.34 in 4.0 mi ESE 5.8 mph - 0.00 in Snow Light Snow
6:53 PM 19.0 °F 12.3 °F 16.0 °F 88% 30.37 in 3.0 mi East 4.6 mph - 0.00 in Snow Light Snow
7:22 PM 19.0 °F 12.3 °F 16.0 °F 88% 30.31 in 2.0 mi East 4.6 mph - 0.00 in Snow Light Snow
7:51 PM 19.4 °F 12.8 °F 15.8 °F 86% 30.32 in 3.0 mi East 4.6 mph - 0.00 in Snow Light Snow
7:52 PM 19.0 °F 12.3 °F 16.0 °F 88% 30.39 in 3.0 mi East 4.6 mph - 0.00 in Snow Light Snow
8:05 PM 18.0 °F 11.1 °F 16.0 °F 92% 30.32 in 2.0 mi East 4.6 mph - 0.00 in Snow Light Snow
8:15 PM 18.0 °F 11.1 °F 15.1 °F 88% 30.32 in 3.0 mi East 4.6 mph - 0.01 in Snow Light Snow
8:53 PM 16.0 °F 8.8 °F 15.1 °F 96% 30.40 in 9.0 mi NE 4.6 mph - 0.01 in   Overcast
9:11 PM 17.1 °F 10.0 °F 15.1 °F 92% 30.34 in 4.0 mi NE 4.6 mph - 0.00 in Snow Light Snow
9:53 PM 19.0 °F 13.9 °F 16.0 °F 88% 30.42 in 10.0 mi ENE 3.5 mph - 0.00 in   Overcast
10:53 PM 18.0 °F 11.1 °F 16.0 °F 92% 30.44 in 10.0 mi East 4.6 mph - N/A   Overcast
11:53 PM 18.0 °F 9.8 °F 16.0 °F 92% 30.46 in 10.0 mi East 5.8 mph - N/A   Overcast